GW4197 Weather Reports


Display with metric or nautical units.
time (UTC)temp
F
wind
direction
speed
MPH
gust
MPH
rain 1hr
in
rain 24hr
in
rain mn
in
humidity
%
barometer
mb
20260505031549 47 236 17.0 26.0 0.00 0.00 0.00 80 1005.1
20260505031031 47 260 16.0 26.0 0.00 0.00 0.00 79 1005.0
20260505030531 47 242 17.0 26.0 0.00 0.00 0.00 78 1005.1
20260505030044 47 243 17.0 26.0 0.00 0.00 0.00 79 1004.9
20260505025532 48 244 16.0 26.0 0.00 0.00 0.00 78 1004.9
20260505025031 48 230 15.0 28.0 0.00 0.00 0.00 77 1004.8
20260505024544 48 248 18.0 28.0 0.00 0.00 0.00 77 1004.7
20260505024031 48 250 18.0 27.0 0.00 0.00 0.00 77 1004.6
20260505023533 48 230 18.0 29.0 0.00 0.00 0.00 76 1004.5
20260505023050 48 276 18.0 30.0 0.00 0.00 0.00 76 1004.5
20260505022531 49 250 19.0 30.0 0.00 0.00 0.00 75 1004.4
20260505022031 49 162 17.0 29.0 0.00 0.00 0.00 74 1004.3
20260505021544 49 253 18.0 28.0 0.00 0.00 0.00 74 1004.3
20260505021032 49 182 17.0 29.0 0.00 0.00 0.00 74 1004.3
20260505020531 49 252 19.0 29.0 0.00 0.00 0.00 75 1004.2
20260505020039 48 245 18.0 32.0 0.00 0.00 0.00 75 1004.2
20260505015532 49 227 18.0 32.0 0.00 0.00 0.00 74 1004.1
20260505015033 49 256 20.0 32.0 0.00 0.00 0.00 75 1004.0
20260505014541 49 250 22.0 31.0 0.00 0.00 0.00 74 1004.0
20260505014033 49 230 20.0 29.0 0.00 0.00 0.00 73 1003.9
20260505013532 49 250 18.0 32.0 0.00 0.00 0.00 74 1003.8
20260505013100 49 224 15.0 32.0 0.00 0.00 0.00 73 1003.7
20260505012537 49 185 18.0 30.0 0.00 0.00 0.00 72 1003.7
20260505012030 49 250 16.0 26.0 0.00 0.00 0.00 74 1003.5
20260505011547 49 229 15.0 26.0 0.00 0.00 0.00 75 1003.5
20260505011032 49 233 14.0 25.0 0.00 0.00 0.00 74 1003.5
20260505010531 49 197 12.0 23.0 0.00 0.00 0.00 73 1003.3
20260505010051 49 278 13.0 25.0 0.00 0.00 0.00 73 1003.3
20260505005533 50 265 14.0 25.0 0.00 0.00 0.00 72 1003.3
20260505005031 49 293 13.0 21.0 0.00 0.00 0.00 72 1003.3
20260505004540 49 107 12.0 19.0 0.00 0.00 0.00 73 1003.3
20260505004031 49 231 12.0 21.0 0.00 0.00 0.00 73 1003.2
20260505003533 49 242 14.0 27.0 0.00 0.00 0.00 72 1003.3
20260505003044 49 210 14.0 27.0 0.00 0.00 0.00 72 1003.3
20260505002533 49 243 15.0 21.0 0.00 0.00 0.00 73 1003.3
20260505002034 49 253 11.0 22.0 0.00 0.00 0.00 73 1003.3
20260505001542 49 241 14.0 27.0 0.00 0.00 0.00 72 1003.2
20260505001034 49 202 15.0 28.0 0.00 0.00 0.00 72 1003.2
20260505000535 50 224 17.0 28.0 0.00 0.00 0.00 71 1002.9
20260505000054 49 284 17.0 31.0 0.00 0.00 0.00 71 1002.8
20260504235531 49 240 18.0 31.0 0.00 0.00 0.00 71 1002.8
20260504235031 49 226 17.0 29.0 0.00 0.00 0.00 71 1002.6
20260504234543 49 255 20.0 27.0 0.00 0.00 0.00 71 1002.7
20260504234031 47 188 14.0 26.0 0.00 0.00 0.00 73 1002.6
20260504233531 48 264 14.0 26.0 0.00 0.00 0.00 69 1002.6
20260504233047 49 250 17.0 26.0 0.00 0.00 0.00 65 1002.5
20260504232531 48 244 15.0 28.0 0.00 0.00 0.00 65 1002.5
20260504232030 49 261 17.0 29.0 0.00 0.00 0.00 64 1002.5
20260504231543 49 252 18.0 29.0 0.00 0.00 0.00 63 1002.4
20260504231030 49 240 16.0 29.0 0.00 0.00 0.00 62 1002.2
20260504230530 50 223 17.0 24.0 0.00 0.00 0.00 62 1002.2
20260504230044 49 237 17.0 24.0 0.00 0.00 0.00 63 1002.2
20260504225532 49 231 13.0 20.0 0.00 0.00 0.00 65 1002.1
20260504225030 48 257 11.0 20.0 0.00 0.00 0.00 66 1002.1
20260504224543 48 255 10.0 17.0 0.00 0.00 0.00 68 1002.1
20260504224031 47 244 8.0 19.0 0.00 0.00 0.00 69 1002.1
20260504223531 48 255 13.0 21.0 0.00 0.00 0.00 66 1001.9
20260504223047 48 245 13.0 25.0 0.00 0.00 0.00 65 1001.8
20260504222533 50 228 15.0 25.0 0.00 0.00 0.00 62 1001.8
20260504222031 51 250 16.0 25.0 0.00 0.00 0.00 59 1001.8
20260504221549 51 240 16.0 25.0 0.00 0.00 0.00 60 1001.7
20260504221034 50 245 15.0 22.0 0.00 0.00 0.00 60 1001.6
20260504220532 50 255 13.0 22.0 0.00 0.00 0.00 60 1001.7
20260504220049 51 233 13.0 22.0 0.00 0.00 0.00 59 1001.6
20260504215532 50 198 14.0 25.0 0.00 0.00 0.00 60 1001.7
20260504215034 51 198 14.0 25.0 0.00 0.00 0.00 59 1001.5
20260504214555 50 176 15.0 23.0 0.00 0.00 0.00 59 1001.5
20260504214031 50 266 15.0 23.0 0.00 0.00 0.00 61 1001.4
20260504213533 51 252 15.0 23.0 0.00 0.00 0.00 60 1001.5
20260504213057 50 255 15.0 25.0 0.00 0.00 0.00 60 1001.5
20260504212531 50 265 14.0 25.0 0.00 0.00 0.00 61 1001.4
20260504212033 51 240 16.0 25.0 0.00 0.00 0.00 60 1001.3
20260504211542 50 240 16.0 24.0 0.00 0.00 0.00 59 1001.3
20260504211031 50 230 16.0 24.0 0.00 0.00 0.00 61 1001.2
20260504210531 50 222 16.0 24.0 0.00 0.00 0.00 60 1001.2
20260504210042 50 222 16.0 23.0 0.00 0.00 0.00 62 1001.1
20260504205532 50 245 14.0 26.0 0.00 0.00 0.00 61 1001.0
20260504205033 50 233 16.0 26.0 0.00 0.00 0.00 62 1001.0
20260504204540 49 238 15.0 26.0 0.00 0.00 0.00 63 1001.0
20260504204031 49 237 14.0 23.0 0.00 0.00 0.00 66 1001.0
20260504203532 49 252 16.0 23.0 0.00 0.00 0.00 63 1000.8
20260504203043 49 236 15.0 25.0 0.00 0.00 0.00 64 1000.9
20260504202532 49 238 15.0 25.0 0.00 0.00 0.00 66 1000.8
20260504202031 49 221 17.0 26.0 0.00 0.00 0.00 65 1000.8
20260504201559 49 246 17.0 26.0 0.00 0.00 0.00 66 1000.7
20260504201033 49 238 16.0 27.0 0.00 0.00 0.00 66 1000.7
20260504200530 48 261 17.0 27.0 0.00 0.00 0.00 67 1000.6
20260504200046 48 252 17.0 27.0 0.00 0.00 0.00 67 1000.5
20260504195530 48 250 18.0 27.0 0.00 0.00 0.00 67 1000.4
20260504195030 48 259 18.0 27.0 0.00 0.00 0.00 68 1000.3
20260504194547 48 228 20.0 27.0 0.00 0.00 0.00 68 1000.2
20260504194031 48 235 19.0 27.0 0.00 0.00 0.00 69 1000.1
20260504193534 48 246 18.0 31.0 0.00 0.00 0.00 70 1000.1
20260504193040 48 255 18.0 31.0 0.00 0.00 0.00 71 1000.0
20260504192532 47 252 18.0 28.0 0.00 0.00 0.00 72 999.9
20260504192032 47 253 19.0 28.0 0.00 0.00 0.00 73 999.8
20260504191548 47 262 19.0 28.0 0.00 0.00 0.00 74 999.6
20260504191032 47 243 18.0 28.0 0.00 0.00 0.00 75 999.5
20260504190536 47 235 19.0 29.0 0.00 0.00 0.00 76 999.7
20260504190058 46 252 18.0 29.0 0.00 0.00 0.00 77 999.7
20260504185534 46 251 18.0 28.0 0.00 0.00 0.00 77 999.6
20260504185032 46 224 18.0 27.0 0.00 0.00 0.00 77 999.7
20260504184559 46 255 19.0 29.0 0.00 0.00 0.00 78 999.7
20260504184032 46 259 18.0 29.0 0.00 0.00 0.00 78 999.5
20260504183533 46 248 19.0 27.0 0.00 0.00 0.00 78 999.5
20260504183042 46 245 18.0 31.0 0.00 0.00 0.00 80 999.5
20260504182532 45 239 18.0 31.0 0.00 0.00 0.00 80 999.3
20260504182054 45 256 19.0 29.0 0.00 0.00 0.00 80 999.2
20260504182051 46 243 19.0 30.0 0.00 0.00 0.00 80 999.2